Weather History for KJAX - September, 2013

Change the Weather History Date:

Saturday, September 7, 2013

  Actual Average Record
Temperature  
Mean Temperature 79 °F 80 °F  
Max Temperature 88 °F 88 °F 96 °F (1951)
Min Temperature 70 °F 71 °F 63 °F (1997)
Degree Days  
Heating Degree Days 0 0  
Month to date heating degree days 0 0  
Since 1 July heating degree days 0 0  
Cooling Degree Days 14 15  
Month to date cooling degree days 119 106  
Year to date cooling degree days 2048 2096  
Growing Degree Days 29 (Base 50)    
Moisture  
Dew Point 71 °F    
Average Humidity 78    
Maximum Humidity 100    
Minimum Humidity 55    
Precipitation  
Precipitation 0.00 in 0.29 in 3.85 in (1976)
Month to date precipitation 0.23 2.02  
Year to date precipitation 36.59 37.38  
Snow  
Snow 0.00 in 0.00 in 0.00 in (2002)
Month to date snowfall 0.0 0.0  
Since 1 July snowfall 0.0 0.0  
Since 1 September snowfall 0.0 0.0  
Snow Depth 0.00 in    
Sea Level Pressure  
Sea Level Pressure 30.02 in    
Wind  
Wind Speed 6 mph (NNE)    
Max Wind Speed 16 mph    
Max Gust Speed 21 mph    
Visibility 7 miles    
Events Fog    
T = Trace of Precipitation, MM = Missing Value Source: NWS Daily Summary

Daily Weather History Graph

Daily Weather History Graph

Search for Another Location

Airport or City:

Trip Planner

Search our weather history database for the weather conditions in past years. The results will help you decide how hot, cold, wet, or windy it might be!

Date:

Astronomy

Sep. 07, 2013 Rise Set
Actual Time 7:06 AM EDT 7:41 PM EDT
Civil Twilight 6:42 AM EDT 8:06 PM EDT
Nautical Twilight 6:14 AM EDT 8:34 PM EDT
Astronomical Twilight 5:44 AM EDT 9:03 PM EDT
Moon 9:06 AM EDT (9/7) 8:54 PM EDT (9/7)
Length of Visible Light 13h 23m
Length of Day
12h 35m
Waxing Crescent, 5% of the Moon is Illuminated
Sep 7
Waxing Crescent
Sep 12
First Quarter
Sep 19
Full
Sep 26
Last Quarter
Oct 4
New

Hourly Weather History & Observations

Time (EDT) Temp. Heat Index Dew Point Humidity Pressure Visibility Wind Dir Wind Speed Gust Speed Precip Events Conditions
12:56 AM 72.0 °F - 71.1 °F 97% 30.04 in 8.0 mi Calm Calm - N/A   Mostly Cloudy
1:56 AM 72.0 °F - 70.0 °F 93% 30.04 in 8.0 mi Calm Calm - N/A   Scattered Clouds
2:56 AM 71.1 °F - 70.0 °F 96% 30.03 in 8.0 mi Calm Calm - N/A   Scattered Clouds
3:56 AM 71.1 °F - 70.0 °F 96% 30.01 in 7.0 mi Calm Calm - N/A   Partly Cloudy
4:51 AM 69.8 °F - 69.8 °F 100% 30.02 in 5.0 mi Calm Calm - N/A   Scattered Clouds
4:56 AM 70.0 °F - 69.1 °F 97% 30.02 in 6.0 mi Calm Calm - N/A   Scattered Clouds
5:01 AM 69.8 °F - 69.8 °F 100% 30.02 in 6.0 mi Calm Calm - N/A   Mostly Cloudy
5:22 AM 71.6 °F - 69.8 °F 94% 30.01 in 2.0 mi NNW 4.6 mph - N/A   Overcast
5:27 AM 71.6 °F - 69.8 °F 94% 30.01 in 0.8 mi NNW 4.6 mph - N/A   Overcast
5:36 AM 71.6 °F - 69.8 °F 94% 30.01 in 0.5 mi NNW 4.6 mph - N/A Fog Fog
5:56 AM 71.1 °F - 71.1 °F 100% 30.01 in 0.5 mi NNW 3.5 mph - N/A Fog Fog
6:08 AM 71.6 °F - 71.6 °F 100% 30.01 in 0.5 mi North 3.5 mph - N/A Fog Fog
6:31 AM 71.6 °F - 69.8 °F 94% 30.02 in 0.5 mi NNW 4.6 mph - N/A Fog Fog
6:45 AM 71.6 °F - 69.8 °F 94% 30.02 in 1.0 mi North 3.5 mph - N/A   Mist
6:51 AM 71.6 °F - 71.6 °F 100% 30.02 in 1.5 mi NNW 3.5 mph - N/A   Mostly Cloudy
6:56 AM 71.1 °F - 71.1 °F 100% 30.02 in 1.5 mi Calm Calm - N/A   Mostly Cloudy
7:08 AM 71.6 °F - 71.6 °F 100% 30.02 in 2.0 mi NNW 4.6 mph - N/A   Scattered Clouds
7:35 AM 71.6 °F - 71.6 °F 100% 30.02 in 3.0 mi Calm Calm - N/A   Scattered Clouds
7:56 AM 72.0 °F - 71.1 °F 97% 30.03 in 3.0 mi NNW 3.5 mph - N/A   Scattered Clouds
8:56 AM 77.0 °F - 73.0 °F 88% 30.04 in 7.0 mi North 4.6 mph - N/A   Partly Cloudy
9:56 AM 81.0 °F 85.8 °F 73.0 °F 77% 30.05 in 10.0 mi NNE 6.9 mph - N/A   Partly Cloudy
10:56 AM 82.0 °F 87.4 °F 73.0 °F 74% 30.05 in 10.0 mi North 6.9 mph - N/A   Scattered Clouds
11:56 AM 87.1 °F 93.6 °F 72.0 °F 61% 30.05 in 10.0 mi ENE 10.4 mph - N/A   Scattered Clouds
12:56 PM 86.0 °F 91.5 °F 71.1 °F 61% 30.04 in 10.0 mi ENE 13.8 mph - N/A   Mostly Cloudy
1:56 PM 88.0 °F 92.1 °F 69.1 °F 53% 30.03 in 10.0 mi NE 12.7 mph - N/A   Scattered Clouds
2:56 PM 88.0 °F 92.1 °F 69.1 °F 53% 30.01 in 10.0 mi NE 11.5 mph - N/A   Scattered Clouds
3:56 PM 86.0 °F 89.4 °F 68.0 °F 55% 29.99 in 10.0 mi ENE 11.5 mph - N/A   Scattered Clouds
4:56 PM 86.0 °F 90.7 °F 70.0 °F 59% 29.98 in 10.0 mi ENE 15.0 mph - N/A   Scattered Clouds
5:56 PM 84.9 °F 89.4 °F 70.0 °F 61% 29.98 in 10.0 mi NE 12.7 mph - N/A   Scattered Clouds
6:56 PM 82.9 °F 87.5 °F 71.1 °F 67% 29.97 in 10.0 mi ENE 11.5 mph - N/A   Partly Cloudy
7:56 PM 79.0 °F - 72.0 °F 79% 29.98 in 10.0 mi ENE 5.8 mph - N/A   Scattered Clouds
8:56 PM 77.0 °F - 72.0 °F 84% 29.99 in 10.0 mi NE 3.5 mph - N/A   Clear
9:56 PM 75.9 °F - 72.0 °F 87% 30.01 in 10.0 mi Calm Calm - N/A   Clear
10:56 PM 73.9 °F - 71.1 °F 91% 30.00 in 10.0 mi Calm Calm - N/A   Clear
11:56 PM 73.0 °F - 71.1 °F 93% 30.00 in 9.0 mi Calm Calm - N/A   Clear